Estación de Remehue INIA

Ultimos registro cada 15 minutos 35
Estación Fecha / Hora Temperatura Humedad Lluvia Velocidad Dirección Radiación Presion
35 Remehue INIA 08-05-2026 08:30 6,8 99,4 0 0,1 102 11 1012
34 Remehue INIA 08-05-2026 08:15 6,6 99,3 0 0,3 154 9 1012
33 Remehue INIA 08-05-2026 08:00 6,6 99,2 0,1 0 109 1 1011
32 Remehue INIA 08-05-2026 07:45 6,7 99,1 0 0 84 0 1012
31 Remehue INIA 08-05-2026 07:30 6,6 99,2 0 0,1 98 0 1012
30 Remehue INIA 08-05-2026 07:15 6,6 99,1 0,1 0,2 86 0 1012
29 Remehue INIA 08-05-2026 07:00 6,4 99,1 0,1 1 94 0 1012
28 Remehue INIA 08-05-2026 06:45 6,4 99 0 0,9 96 0 1011
27 Remehue INIA 08-05-2026 06:30 6,4 98,9 0,1 0,7 86 0 1011
26 Remehue INIA 08-05-2026 06:15 6,3 98,8 0 0,4 51 0 1011
25 Remehue INIA 08-05-2026 06:00 6,3 98,8 0 0,2 40 0 1010
24 Remehue INIA 08-05-2026 05:45 6,3 98,7 0 0,7 24 0 1010
23 Remehue INIA 08-05-2026 05:30 6,3 98,7 0,1 0,9 27 0 1010
22 Remehue INIA 08-05-2026 05:15 6,3 98,5 0 1 23 0 1010
21 Remehue INIA 08-05-2026 05:00 6,2 98,4 0,1 0,8 27 0 1010
20 Remehue INIA 08-05-2026 04:45 6,2 98,4 0 1,2 23 0 1010
19 Remehue INIA 08-05-2026 04:30 6,2 98,2 0 1,1 27 0 1010
18 Remehue INIA 08-05-2026 04:15 6,2 98,1 0,1 0,9 24 0 1010
17 Remehue INIA 08-05-2026 04:00 6,3 98,1 0 0,6 15 0 1010
16 Remehue INIA 08-05-2026 03:45 6,2 98,1 0 0,9 359 0 1010
15 Remehue INIA 08-05-2026 03:30 6,2 98,1 0,1 1 17 0 1010
14 Remehue INIA 08-05-2026 03:15 6,1 97,9 0,3 0,6 342 0 1010
13 Remehue INIA 08-05-2026 03:00 6,2 97,8 0,2 0,9 10 0 1010
12 Remehue INIA 08-05-2026 02:45 6,1 97,6 0,1 0,6 16 0 1011
11 Remehue INIA 08-05-2026 02:30 6,2 97,3 0,2 0,9 28 0 1011
10 Remehue INIA 08-05-2026 02:15 6,1 97,1 0,1 1,2 5 0 1010
9 Remehue INIA 08-05-2026 02:00 6,1 97,1 0,4 1,5 347 0 1011
8 Remehue INIA 08-05-2026 01:45 6,1 96,7 1 1,4 357 0 1011
7 Remehue INIA 08-05-2026 01:30 6 96,5 0,1 1,2 357 0 1010
6 Remehue INIA 08-05-2026 01:15 6,1 96,3 0,1 1 335 0 1011
5 Remehue INIA 08-05-2026 01:00 6,2 96,1 0 0,8 355 0 1011
4 Remehue INIA 08-05-2026 00:45 6,1 95,7 0,1 1,4 352 0 1012
3 Remehue INIA 08-05-2026 00:30 6,2 95,4 0,3 1,9 351 0 1012
2 Remehue INIA 08-05-2026 00:15 6,2 95,2 0 2 354 0 1012
1 Remehue INIA 08-05-2026 00:00 6,2 96 0,2 1,7 349 0 1012